Location: Brienzwiler
(46.7508°N, 8.1014°E)
Time: 08:05:21
(UTC+00:00)

Lacrosse 5 rocket - Pass Details

Date: 05 July 2020
Orbit: 464 x 632 km, 57.0° (Epoch: 05 August)

Event Time Altitude Azimuth Distance (km) Brightness Sun altitude
Rises 21:14:23 0° 291° (WNW) 2,789 5.8 -13.9°
Reaches altitude 10° 21:17:12 10° 309° (NW) 1,856 5.2 -14.2°
Maximum altitude 21:20:17 19° 356° (N) 1,320 4.1 -14.4°
Drops below altitude 10° 21:23:15 10° 44° (NE) 1,778 4.1 -14.7°
Sets 21:25:54 0° 62° (ENE) 2,632 4.8 -14.9°
